This demonstration page uses our WeatherBlox Daily Observations layout. Learn more.

Left ArrowRight Arrow

Hourly Observations for May 9, 2019

Temp ( °F °C ) Dew Point ( °F °C ) Humidity (%) Winds ( mph kmh ) Pressure ( in mb ) Visibility ( mi km ) Precip ( " mm )
12:15 am 00:15 Cloudy 41 5.1 38 3.4 89 89 N 21 33 30.02 1016 10 16 N/A
12:35 am 00:35 Cloudy 41 5 38 3.3 89 89 N 22 35 30.02 1017 10 16 N/A
12:55 am 00:55 Cloudy 40 4.7 38 3.5 92 92 N 15 24 30.03 1017 10 16 N/A
1:15 am 01:15 Cloudy 40 4.6 39 3.8 95 95 N 15 24 30.03 1017 10 16 N/A
1:35 am 01:35 Cloudy 40 4.7 39 3.8 94 94 N 21 33 30.03 1017 10 16 N/A
1:55 am 01:55 Cloudy 40 4.7 38 3.2 90 90 N 20 31 30.03 1017 10 16 N/A
2:15 am 02:15 Cloudy 40 4.6 38 3.1 90 90 N 20 31 30.04 1017 10 16 N/A
2:35 am 02:35 Cloudy 40 4.5 38 3.3 92 92 N 20 31 30.05 1018 10 16 N/A
2:55 am 02:55 Cloudy 40 4.5 38 3.3 92 92 N 14 22 30.05 1018 10 16 N/A
3:15 am 03:15 Cloudy 40 4.5 37 3 90 90 N 16 26 30.06 1018 10 16 N/A
3:35 am 03:35 Cloudy 40 4.5 37 3 90 90 N 16 26 30.06 1018 10 16 N/A
3:55 am 03:55 Cloudy 40 4.3 37 3 91 91 N 16 26 30.05 1018 10 16 N/A
4:15 am 04:15 Cloudy 39 4.1 37 2.9 92 92 N 14 22 30.07 1018 10 16 N/A
4:35 am 04:35 Cloudy 39 3.9 37 3 94 94 N 20 31 30.06 1018 10 16 N/A
4:55 am 04:55 Cloudy 39 3.7 38 3.1 96 96 N 16 26 30.06 1018 10 16 N/A
5:15 am 05:15 Cloudy 39 3.7 38 3.1 96 96 N 13 20 30.06 1018 10 16 N/A
5:35 am 05:35 Cloudy 39 4.1 37 3 93 93 N 13 20 30.07 1018 10 16 N/A
5:55 am 05:55 Cloudy 40 4.2 37 3 92 92 N 15 24 30.07 1018 10 16 N/A
6:15 am 06:15 Cloudy 40 4.3 38 3.1 92 92 N 15 24 30.06 1018 10 16 N/A
6:35 am 06:35 Cloudy 40 4.5 38 3.2 91 91 N 17 28 30.07 1018 10 16 N/A
6:55 am 06:55 Cloudy 40 4.5 38 3.2 91 91 N 16 26 30.07 1018 10 16 N/A
7:15 am 07:15 Cloudy 40 4.5 38 3.5 93 93 N 17 28 30.08 1019 10 16 N/A
7:35 am 07:35 Cloudy 41 5 37 3 87 87 N 24 39 30.09 1019 10 16 N/A
7:55 am 07:55 Cloudy 41 5 37 3 87 87 N 20 31 30.09 1019 10 16 N/A
8:15 am 08:15 Cloudy 41 5.2 38 3.3 88 88 N 21 33 30.10 1019 10 16 N/A
8:35 am 08:35 Cloudy 42 5.5 38 3.1 85 85 N 25 41 30.09 1019 10 16 N/A
8:55 am 08:55 Cloudy 42 5.6 38 3.2 85 85 NNE 21 33 30.09 1019 10 16 N/A
9:15 am 09:15 Cloudy 42 5.6 38 3.6 87 87 N 22 35 30.10 1019 10 16 N/A
9:35 am 09:35 Cloudy 43 6 38 3.5 84 84 N 17 28 30.11 1020 10 16 N/A
9:55 am 09:55 Cloudy 43 6.3 39 3.7 84 84 N 18 30 30.11 1020 10 16 N/A
10:15 am 10:15 Cloudy 44 6.5 38 3.6 82 82 N 22 35 30.11 1020 10 16 N/A
10:35 am 10:35 Cloudy 44 6.5 38 3.4 81 81 N 20 31 30.12 1020 10 16 N/A
10:55 am 10:55 Cloudy 45 7.1 39 4 81 81 N 16 26 30.13 1020 10 16 N/A
11:15 am 11:15 Cloudy 45 7.2 39 4.1 81 81 N 16 26 30.15 1021 10 16 N/A
11:35 am 11:35 Cloudy 45 7.2 39 3.8 79 79 N 15 24 30.15 1021 10 16 N/A
11:55 am 11:55 Cloudy 46 8 39 4 76 76 NNE 16 26 30.15 1021 10 16 N/A
12:15 pm 12:15 Cloudy 47 8.3 40 4.4 77 77 NNE 14 22 30.15 1021 10 16 N/A
12:35 pm 12:35 Cloudy 47 8.3 40 4.4 77 77 N 12 19 30.15 1021 10 16 N/A
12:55 pm 12:55 Cloudy 47 8.5 40 4.3 75 75 N 15 24 30.16 1021 10 16 N/A
1:15 pm 13:15 Cloudy 48 9.1 41 4.8 75 75 N 14 22 30.15 1021 10 16 N/A
1:35 pm 13:35 Cloudy 48 8.9 39 4 72 72 N 13 20 30.15 1021 10 16 N/A
1:55 pm 13:55 Cloudy 48 8.7 39 3.7 71 71 N 16 26 30.15 1021 10 16 N/A
2:15 pm 14:15 Mostly Cloudy 47 8.6 39 3.8 72 72 N 9 15 30.16 1021 10 16 N/A
2:35 pm 14:35 Mostly Cloudy 48 8.9 39 3.7 70 70 N 12 19 30.15 1021 10 16 N/A
3:55 pm 15:55 Partly Cloudy 50 10.2 40 4.3 67 67 N 10 17 30.13 1020 10 16 N/A
4:15 pm 16:15 Mostly Cloudy 51 10.5 40 4.4 66 66 N 14 22 30.12 1020 10 16 N/A
4:35 pm 16:35 Mostly Cloudy 51 10.7 39 3.9 63 63 N 15 24 30.12 1020 10 16 N/A
4:55 pm 16:55 Mostly Cloudy 50 10.2 39 3.8 65 65 N 10 17 30.11 1020 10 16 N/A
5:15 pm 17:15 Partly Cloudy 51 10.8 38 3.6 61 61 NNE 10 17 30.10 1019 10 16 N/A
5:35 pm 17:35 Partly Cloudy 51 10.3 38 3.1 61 61 N 13 20 30.10 1019 10 16 N/A
5:55 pm 17:55 Partly Cloudy 51 10.8 38 3.4 61 61 NNE 14 22 30.10 1019 10 16 N/A
6:15 pm 18:15 Partly Cloudy 51 10.5 38 3.3 61 61 N 14 22 30.10 1019 10 16 N/A
6:35 pm 18:35 Partly Cloudy 51 10.6 37 2.7 58 58 N 8 13 30.10 1019 10 16 N/A
6:55 pm 18:55 Mostly Cloudy 49 9.6 37 2.9 63 63 NE 12 19 30.11 1020 10 16 N/A
7:15 pm 19:15 Mostly Cloudy 50 9.8 37 2.8 62 62 N 12 19 30.10 1019 10 16 N/A
7:35 pm 19:35 Mostly Cloudy 49 9.6 37 2.8 63 63 NNE 10 17 30.12 1020 10 16 N/A
7:55 pm 19:55 Partly Cloudy 49 9.2 37 2.5 63 63 NE 7 11 30.12 1020 10 16 N/A
8:15 pm 20:15 Sunny 47 8.2 37 2.8 69 69 NNE 7 11 30.14 1021 10 16 N/A
8:35 pm 20:35 Sunny 45 7 37 2.8 75 75 NNE 6 9 30.16 1021 10 16 N/A
8:55 pm 20:55 Clear 43 6.3 37 3 80 80 NNE 3 6 30.17 1022 10 16 N/A
9:15 pm 21:15 Clear 42 5.4 37 2.7 83 83 NE 3 6 30.18 1022 10 16 N/A
9:35 pm 21:35 Clear 40 4.4 36 2.3 86 86 NE 3 6 30.19 1022 10 16 N/A
9:55 pm 21:55 Clear 40 4.2 37 2.6 89 89 N N/A 30.20 1023 10 16 N/A
10:15 pm 22:15 Clear 39 4 36 2.2 88 88 NE 3 6 30.21 1023 10 16 N/A
10:35 pm 22:35 Clear 39 3.7 36 2.3 91 91 N N/A 30.22 1023 10 16 N/A
10:55 pm 22:55 Clear 39 3.7 37 2.5 92 92 N N/A 30.23 1024 10 16 N/A
11:15 pm 23:15 Clear 37 3 36 2.1 94 94 N N/A 30.25 1024 10 16 N/A
11:35 pm 23:35 Clear 37 2.7 36 2 95 95 N N/A 30.26 1025 10 16 N/A
11:55 pm 23:55 Clear 36 2.1 35 1.5 96 96 N N/A 30.27 1025 10 16 N/A

Powered by AerisWeather